SCP
0 0 0 0 0 0 0 0 0 0 0 0 0 0 0 0 0 0 0 0 0 0 0 0 0 0 0 0 0 0 0 0 0 0 -0 -0 0 0 0 0 0 0 0 0 0 0 0 0 -0 0 0 0 0 0
0 0 0 0 0 0 0 0 0 0 0 0 0 0 -0 0 0 0 0 0 0 0 0 0 0 0 -0 -0 -0 0 0 0 0 0 -0 0 0 0 0 0 0 -0 0 0 0 0 0 -0 0 -0 -0 0 0 0
0 0 0 0 0 0 0 0 0 0 0 0 0 0 0 -0 0 0 0 0 0 0 0 0 0 0 0 -0 -0 0 0 0 0 0 -0 0 0 0 -0 -0 0 0 0 0 0 0 0 0 0 0 0 0 -0 0
0 0 0 0 0 0 0 0 0 0 0 0 0 0 0 0 0 0 0 0 0 0 0 0 0 0 -0 0 -0 -0 0 0 0 0 0 0 0 0 0 0 0 0 0 0 0 0 0 0 -0 -0 -0 0 0 0
0 0 0 0 0 0 0 0 0 0 0 0 0 0 0 0 0 0 0 0 0 0 0 0 0 0 -0 0 0 -0 -0 0 0 0 0 0 0 0 0 0 -0 0 -0 0 0 -0 0 0 -0 -0 -0 0 0 0
0 0 0 0 0 0 0 0 0 0 0 0 0 0 0 0 0 0 0 0 0 0 0 0 0 0 0 -0 0 0 0 0 0 0 0 0 0 0 0 0 0 0 0 0 0 0 0 -0 0 0 0 0 -0 0
0 0 0 0 0 0 0 0 0 0 0 0 0 0 0 0 0 0 0 0 0 0 0 0 0 0 -0 0 0 0 0 0 0 0 0 0 0 0 0 0 -0 -0 -0 -0 -0 0 0 0 -0 0 -0 0 0 0
0 0 0 0 0 0 0 0 0 0 0 0 0 0 0 0 0 0 0 0 0 0 0 0 0 0 0 0 0 0 0 0 0 0 0 0 0 0 -0 -0 -0 -0 0 0 0 0 -0 -0 -0 -0 -0 -0 0 0
0 0 0 0 0 0 0 0 0 0 0 0 0 0 0 0 0 0 0 0 0 0 0 0 0 0 0 0 0 0 0 0 0 0 0 0 0 0 -0 0 -0 -0 -0 -0 0 -0 0 0 0 -0 -0 0 0 0
0 0 0 0 0 0 0 0 0 0 0 0 0 0 0 0 0 0 0 0 0 0 0 0 0 0 0 0 0 0 0 0 0 0 0 0 0 0 0 0 0 0 -0 -0 -0 -0 -0 0 0 -0 0 0 0 0
0 0 0 0 0 0 0 0 0 0 0 0 0 0 0 0 0 0 0 0 0 0 -0 0 0 0 0 0 0 0 0 0 0 0 0 0 0 -0 0 0 0 0 0 0 -0 -0 -0 -0 0 -0 0 0 0 0
0 0 0 0 0 0 0 0 0 0 0 0 0 0 0 0 0 0 0 0 0 0 0 0 0 0 -0 0 0 0 0 0 0 0 0 0 -0 0 0 0 0 0 0 0 -0 -0 -0 -0 -0 0 0 0 0 0
0 0 0 0 0 0 0 0 0 0 0 0 0 0 0 0 0 0 0 0 0 0 0 0 0 0 0 0 0 0 0 0 0 0 0 0 0 0 0 0 0 0 0 0 -0 -0 -0 -0 -0 -0 -0 0 -0 -0
0 0 0 0 0 0 0 0 0 0 0 0 0 0 0 0 0 0 0 0 0 -0 0 0 0 0 0 0 0 0 0 0 0 0 0 0 0 0 0 0 0 0 0 0 -0 -0 -0 -0 -0 -0 -0 -0 0 0
0 0 0 0 0 0 0 0 0 0 0 0 0 0 0 0 0 0 0 0 0 0 0 0 0 0 0 0 0 0 0 0 0 0 0 0 0 0 0 0 0 0 0 0 -0 0 0 -0 -0 -0 -0 -0 -0 0
0 0 0 0 0 0 0 0 0 0 0 0 0 0 0 0 0 0 0 0 0 0 0 0 0 0 0 0 0 0 0 0 0 0 0 0 0 -0 0 0 0 0 0 0 0 0 0 0 -0 -0 -0 -0 -0 -0
0 0 0 0 0 0 0 0 0 0 0 0 0 0 0 0 0 0 0 0 0 0 0 0 0 -0 0 0 0 0 0 0 0 0 0 0 0 -0 -0 0 0 0 0 0 0 0 0 0 -0 -0 -0 -0 -0 -0
0 0 0 0 0 0 0 0 0 0 0 0 0 0 0 0 0 0 0 0 0 0 0 0 0 0 0 0 0 0 0 0 0 0 0 0 0 -0 -0 0 0 0 -0 -0 -0 -0 0 0 -0 -0 -0 -0 -0 -0
0 0 0 0 0 0 0 0 0 0 0 0 0 0 0 0 0 0 0 0 0 0 0 0 0 0 0 0 0 0 0 0 0 0 0 -0 -0 0 0 0 0 0 -0 -0 -0 -0 0 -0 -0 -0 -0 -0 -0 -0
-0 0 0 0 0 0 0 0 0 0 0 0 0 0 0 0 0 0 0 0 0 0 0 0 0 0 0 0 0 0 0 0 0 0 0 0 0 0 0 0 0 0 0 -0 -0 -0 0 0 0 -0 -0 -0 -0 -0
0 0 0 0 0 0 0 0 0 0 0 0 0 0 0 0 0 0 0 0 0 0 0 0 0 0 0 0 0 0 0 0 0 0 0 0 0 0 0 0 0 0 0 0 0 0 -0 0 0 0 0 0 0 -0
0 0 0 0 0 0 0 0 0 0 0 0 0 0 0 0 0 0 0 0 0 0 0 0 0 0 0 0 0 0 0 0 0 0 0 0 0 0 0 0 0 0 0 0 0 0 0 -0 -0 -0 0 0 0 0
0 0 0 0 0 0 0 0 0 0 0 0 0 0 0 0 0 0 0 0 0 0 0 0 0 0 0 0 0 0 0 0 0 -0 -0 0 0 -0 0 0 0 0 0 0 0 0 0 -0 -0 -0 -0 0 0 0
0 0 0 0 0 0 0 0 0 0 0 -0 0 0 0 0 0 0 0 0 0 0 0 0 0 0 0 0 0 0 0 0 0 0 0 0 0 0 0 0 0 0 0 0 0 0 0 0 -0 -0 -0 -0 -0 0
0 0 0 0 0 0 0 0 0 0 -0 -0 -0 -0 -0 0 0 0 0 0 0 0 0 0 0 0 0 0 0 0 0 0 0 0 0 0 0 0 0 0 0 0 0 0 0 0 -0 -0 -0 -0 -0 -0 -0 0
0 0 0 0 0 0 0 0 0 0 0 0 -0 0 0 0 -0 0 0 -0 0 0 0 0 0 0 0 0 0 0 0 0 0 0 0 0 0 0 0 0 0 0 0 0 0 0 0 0 0 -0 0 0 -0 -0
0 0 0 0 0 0 0 0 0 0 0 0 -0 0 0 0 0 0 0 0 0 0 0 0 0 0 0 0 0 0 0 0 0 0 0 0 0 0 0 0 0 0 0 0 0 0 0 0 0 0 0 0 0 0
0 0 0 0 0 0 0 0 0 0 -0 -0 0 0 0 -0 0 0 0 0 0 0 0 -0 0 0 0 0 0 0 0 0 0 0 0 0 0 0 0 0 0 0 0 0 0 0 0 0 0 0 0 -0 0 0
0 0 0 0 0 0 0 0 0 0 0 0 0 0 0 0 -0 -0 -0 0 0 0 -0 -0 -0 0 0 0 0 0 0 0 0 0 0 0 0 0 0 0 0 0 0 0 0 0 0 0 0 0 0 0 0 0
0 0 0 0 0 0 0 0 0 0 0 0 0 0 0 0 0 0 0 0 0 0 0 0 0 0 -0 0 0 0 0 0 0 0 0 0 0 0 0 0 0 0 0 0 0 0 0 0 0 0 0 0 0 0
0 0 0 0 0 0 0 0 0 0 0 0 0 0 0 0 0 0 0 0 0 0 0 0 0 0 0 0 0 0 0 0 0 0 0 0 0 0 0 0 0 0 0 0 0 0 0 0 0 0 0 0 0 0
0 0 0 0 0 0 0 0 0 0 0 0 0 0 0 0 0 0 0 0 0 0 0 0 0 0 0 0 0 0 0 0 0 0 0 0 0 0 0 0 0 0 0 0 0 0 0 0 0 0 0 0 0 0
0 0 0 0 0 0 0 0 0 0 0 0 0 0 0 0 0 0 0 0 0 0 0 0 0 0 0 0 0 0 0 0 0 0 0 0 0 0 0 0 0 0 0 0 0 0 0 0 0 0 0 0 0 0
Wind_Speed_500mb
53 51 52 56 60 60 61 63 64 63 62 56 46 35 33 27 26 22 31 31 33 19 51 51 29 29 29 25 6 14 19 5 7 11 7 6 5 6 7 7 13 8 11 4 6 5 6 30 28 9 16 8 14 22
51 51 56 60 62 64 69 65 65 58 46 40 39 40 33 30 22 21 35 29 28 44 55 77 84 71 78 66 35 9 6 8 5 3 3 4 5 4 6 6 7 6 1 8 5 5 14 31 25 46 48 21 19 33
52 56 59 61 63 66 68 63 59 52 49 46 43 41 38 25 16 24 36 35 34 34 51 39 26 4 1 15 25 17 11 9 6 8 4 4 8 4 5 5 6 7 5 6 14 4 14 36 34 44 28 25 39 44
54 55 57 58 61 64 59 57 54 49 49 47 44 40 35 29 21 31 35 37 37 21 11 20 16 56 49 38 37 39 37 9 9 6 7 5 6 9 4 6 5 8 14 16 10 11 33 14 54 36 44 49 55 44
53 56 58 61 63 60 57 55 51 47 47 47 46 43 36 30 25 30 39 46 46 33 9 28 61 4 18 12 30 35 47 38 14 5 6 6 7 6 5 2 5 4 7 7 8 38 24 33 45 38 36 55 64 61
55 56 59 60 58 56 54 52 51 48 44 43 43 40 34 26 22 20 13 5 10 36 8 8 19 16 18 12 22 35 35 30 17 7 8 10 11 7 4 4 10 12 21 16 13 47 42 36 41 41 46 59 72 57
59 58 57 57 56 53 51 51 50 49 46 44 42 36 30 25 23 17 9 10 12 17 9 10 13 10 19 6 11 18 23 16 14 7 9 8 9 8 2 4 11 30 23 22 31 35 31 42 28 40 39 40 47 52
62 56 54 53 52 50 49 50 49 48 46 43 38 30 28 24 24 29 13 27 18 11 11 5 8 16 4 6 2 7 7 10 11 8 6 7 6 1 6 13 16 24 25 22 33 28 25 28 39 39 34 32 34 48
56 52 51 50 49 48 47 46 47 46 45 39 28 16 9 3 10 5 15 16 37 23 9 6 4 7 9 1 3 4 9 6 6 5 6 4 1 7 12 10 6 18 16 23 24 29 38 48 45 40 29 29 36 42
49 50 51 48 46 45 43 42 42 49 38 27 12 3 5 3 9 15 7 8 13 18 17 9 12 6 4 5 5 5 7 4 4 7 5 5 7 16 16 10 3 9 15 23 24 34 36 43 46 48 36 29 29 31
45 47 48 44 43 39 35 35 38 45 34 23 19 6 11 12 12 6 6 7 8 7 12 12 21 17 12 6 7 2 1 2 4 6 3 4 6 8 20 8 2 2 9 17 14 16 20 29 41 45 43 37 36 35
41 43 42 40 37 32 28 26 34 36 34 39 28 24 16 6 7 5 7 6 9 8 9 8 10 20 9 15 6 5 3 2 7 8 2 6 7 11 19 14 7 6 5 12 10 16 18 28 37 44 42 40 40 39
40 38 37 35 29 22 22 31 32 40 42 8 7 7 7 6 6 10 9 6 6 8 5 3 5 8 9 14 5 4 2 7 2 4 6 8 8 5 14 18 12 10 6 4 6 13 13 18 25 38 39 40 36 33
40 36 32 31 26 26 35 34 39 41 16 4 7 9 9 9 10 9 8 5 8 18 31 27 14 12 11 6 4 5 5 5 5 2 9 7 13 12 12 20 14 17 13 8 8 13 15 15 19 30 36 37 33 29
39 39 31 28 19 33 39 45 40 31 9 8 9 10 10 19 17 12 19 14 20 27 20 7 8 3 3 5 5 3 3 5 10 9 7 14 20 21 17 17 9 13 13 8 7 11 13 11 17 25 30 33 32 30
38 37 18 15 30 43 42 39 32 11 8 10 15 11 18 7 10 8 9 20 20 18 28 6 1 3 9 5 6 12 10 10 8 7 14 13 28 26 22 13 11 8 16 10 7 8 11 11 16 24 27 34 37 41
34 28 34 33 33 36 40 31 9 12 12 11 15 28 41 34 28 34 20 33 34 22 5 5 6 10 3 5 5 8 9 7 12 15 12 16 35 37 28 13 15 15 15 15 12 6 8 13 14 19 29 35 41 45
30 32 32 32 34 37 30 8 9 11 15 21 12 18 18 26 30 36 42 37 16 8 6 6 9 8 7 7 6 5 22 28 17 15 15 18 24 23 25 25 21 20 13 19 16 8 8 12 13 19 23 27 34 37
32 33 30 28 23 17 10 7 11 10 17 26 31 41 37 36 37 34 35 34 33 26 11 7 7 7 7 10 8 12 30 34 30 23 21 19 25 26 26 28 27 23 24 24 22 17 12 10 12 16 17 17 26 33
28 24 17 12 14 8 9 10 11 15 11 14 29 29 26 29 34 32 44 45 35 11 10 6 7 4 8 32 30 38 33 35 15 27 20 19 23 24 27 27 32 29 33 32 27 23 22 18 12 12 15 17 19 29
28 25 26 19 15 14 11 10 10 15 20 15 27 27 30 41 30 28 17 20 7 2 4 14 28 39 36 36 39 42 43 33 26 28 24 32 25 30 29 33 33 33 36 38 39 31 27 20 21 16 15 16 19 23
21 30 22 15 5 6 11 12 13 24 18 29 34 15 14 11 10 10 20 6 9 12 18 28 38 45 44 39 36 30 33 32 27 30 42 50 37 28 38 39 41 40 49 43 41 38 33 28 25 18 13 15 17 20
24 23 11 5 6 6 13 12 8 8 6 18 29 8 7 7 8 15 5 9 9 23 28 33 37 33 28 26 26 17 10 19 29 36 46 53 43 42 37 38 44 39 48 45 42 37 36 38 32 23 17 13 11 14
16 6 5 5 6 9 13 8 13 13 9 8 7 10 9 7 14 7 6 8 21 34 36 32 34 40 37 32 40 42 41 31 14 19 23 23 26 39 33 31 40 41 44 39 44 44 47 46 40 32 24 16 11 9
4 2 2 8 6 6 6 4 6 5 6 11 4 6 7 15 2 5 4 12 33 42 50 45 41 37 44 44 41 40 38 45 35 28 15 17 27 26 32 32 36 39 36 42 48 50 51 53 49 42 37 28 20 14
3 5 7 5 6 3 5 6 5 7 10 6 6 11 13 7 3 9 6 44 32 43 43 45 46 43 46 50 47 44 50 44 36 26 22 19 14 23 27 32 43 43 42 40 43 54 49 53 55 51 48 38 30 21
4 8 7 10 9 12 10 12 17 8 6 5 6 7 7 8 10 7 22 41 42 41 38 36 37 36 37 41 49 43 31 44 39 23 16 14 3 8 16 22 37 31 36 43 45 49 51 50 53 52 54 49 40 30
10 7 7 8 12 14 6 6 5 4 5 5 11 6 9 8 7 19 24 39 35 32 32 33 29 29 30 35 42 50 45 25 31 20 20 33 28 21 17 12 16 16 19 34 42 36 42 54 52 50 55 55 46 38
9 9 10 21 13 7 5 7 7 7 6 4 2 4 6 7 17 21 27 31 34 37 42 44 41 36 29 29 38 46 54 54 47 43 53 55 42 31 30 18 9 9 14 21 26 30 32 42 59 51 55 55 48 42
8 8 7 7 5 5 11 16 14 16 13 13 4 7 19 21 31 24 23 27 33 35 32 33 36 37 40 40 38 38 41 42 48 51 48 47 48 36 31 26 16 7 7 18 20 27 33 38 47 50 52 64 59 53
7 5 7 9 10 15 19 25 29 30 25 14 17 14 22 15 25 38 30 26 28 31 36 39 40 41 42 46 47 45 43 41 36 33 32 36 46 46 38 29 22 17 15 14 15 18 32 48 49 55 61 62 69 64
9 12 7 5 10 22 19 16 6 3 6 5 10 12 16 10 8 20 42 31 29 34 35 35 36 38 36 36 36 38 37 36 37 35 33 33 36 36 46 39 32 23 17 17 15 15 18 26 52 64 66 68 75 75
11 16 15 7 8 7 13 21 7 9 9 7 8 18 16 9 9 15 27 32 28 27 24 23 22 25 29 32 33 37 39 39 39 39 39 38 35 36 27 34 42 45 36 23 14 8 10 22 30 38 53 63 73 74
Wind_Direction_500mb
319 321 323 322 324 327 326 324 322 320 320 324 326 326 320 312 303 284 290 285 270 255 284 278 264 258 274 247 244 317 334 334 350 26 354 338 304 330 296 275 312 317 317 346 293 266 328 346 328 327 343 292 339 320
318 321 318 323 326 327 327 323 324 331 332 328 326 322 318 313 313 286 286 296 293 257 269 289 291 280 260 250 269 267 255 288 258 308 267 277 311 283 299 297 317 328 212 301 249 266 264 301 262 299 293 321 327 318
318 318 319 321 324 325 321 321 323 326 325 324 323 321 320 311 292 292 278 285 289 282 296 294 316 337 27 223 218 228 229 214 226 234 262 276 275 283 285 295 278 282 349 282 309 201 290 322 312 319 331 318 320 323
316 317 318 319 321 321 321 321 322 321 320 318 318 319 320 313 286 283 281 276 279 277 282 285 299 304 294 268 244 250 234 199 265 253 243 261 259 222 260 272 289 251 317 305 269 311 329 292 310 339 350 341 339 353
316 318 319 320 319 320 322 322 323 322 318 317 316 315 307 304 302 286 281 275 262 239 281 290 306 305 323 250 237 234 227 230 256 244 221 251 248 252 240 354 254 264 294 324 307 305 303 293 327 10 354 353 350 4
315 317 317 319 320 320 321 322 322 323 320 317 314 314 308 300 298 319 314 350 281 224 270 289 314 304 332 293 217 215 218 227 228 238 243 262 259 236 280 259 256 267 317 332 298 314 321 340 14 25 18 7 5 355
314 316 316 318 319 322 322 323 325 325 324 320 317 312 304 295 273 236 240 295 327 196 250 276 296 285 311 289 195 204 213 205 220 249 227 248 279 231 290 242 276 335 346 1 5 353 353 11 9 28 28 15 351 15
312 315 316 317 319 321 323 324 326 327 324 318 314 307 298 279 263 270 297 251 202 224 251 270 273 316 300 311 299 211 213 202 223 242 255 227 271 215 257 254 327 1 359 1 16 31 24 22 29 33 31 24 13 15
309 312 314 317 321 321 324 325 326 327 326 319 319 320 331 320 201 248 304 285 216 209 284 237 201 267 330 127 338 253 225 237 229 228 243 177 196 232 230 233 7 12 4 352 21 38 39 39 34 26 26 22 25 17
307 310 314 319 318 322 324 326 332 334 343 337 330 290 221 224 293 292 257 227 180 206 229 248 211 256 312 307 268 225 208 242 232 228 225 212 258 249 210 212 306 351 354 3 13 23 25 27 27 26 25 19 26 20
308 309 315 320 322 325 327 336 337 335 349 5 351 311 293 277 289 227 252 233 190 249 229 235 237 241 248 196 233 302 235 232 278 279 256 271 271 250 177 206 251 338 10 9 15 30 39 31 25 20 18 21 23 22
309 311 314 319 321 323 329 332 321 337 342 326 304 301 303 259 237 220 214 209 200 238 211 195 238 208 243 219 228 203 212 59 251 328 75 266 251 253 174 151 189 253 30 27 38 35 33 23 20 22 22 19 25 19
309 311 315 316 320 326 313 315 329 328 325 317 274 253 237 227 220 221 220 205 212 203 197 295 250 224 213 214 224 106 151 233 20 45 233 231 265 204 170 154 153 191 167 86 49 48 38 26 15 23 29 29 27 32
310 313 316 307 308 302 302 318 324 330 329 297 255 260 209 219 231 207 203 203 9 335 308 293 253 196 197 171 171 177 218 76 26 307 241 256 229 184 175 157 169 178 174 126 67 45 26 28 29 28 28 28 30 41
313 318 320 298 292 302 309 313 316 314 265 241 239 242 235 230 255 261 263 294 288 292 308 275 219 217 262 220 196 119 147 255 202 231 236 254 190 173 178 188 178 168 172 159 114 48 40 49 27 35 34 30 30 43
319 328 337 317 303 300 309 309 311 254 236 233 233 259 258 290 281 266 289 293 319 315 314 226 328 254 222 191 153 208 143 222 248 221 242 204 192 188 187 197 188 172 174 173 146 60 36 43 32 34 41 48 51 53
316 327 323 327 315 308 311 306 247 228 226 232 244 240 255 279 270 279 288 297 309 307 247 151 199 196 222 294 265 173 202 228 229 222 233 218 200 207 208 204 194 183 190 178 170 139 77 65 46 45 56 60 57 59
316 325 333 328 321 323 327 236 240 245 247 249 246 270 252 259 273 285 293 300 296 243 245 236 163 193 211 216 250 232 290 294 257 243 246 224 216 210 207 205 199 198 214 189 181 170 125 96 63 62 69 70 63 63
324 332 335 332 322 313 296 267 246 267 252 268 272 280 286 287 291 291 291 299 297 266 263 244 219 206 218 227 236 262 271 259 257 257 245 246 241 238 216 204 204 211 205 201 191 176 145 106 75 77 80 89 74 67
331 332 336 315 331 309 278 266 255 273 279 292 297 286 304 292 294 294 298 295 278 224 207 243 220 271 304 314 309 291 285 304 279 274 277 243 221 219 209 203 201 213 210 204 186 182 174 159 131 96 93 87 84 80
346 348 340 320 293 233 264 287 266 269 290 293 295 320 308 294 288 290 297 322 191 130 334 8 336 330 328 311 297 293 289 289 284 246 272 281 255 230 212 208 211 208 207 206 198 198 201 185 159 140 128 119 111 100
347 337 333 337 269 248 265 256 261 291 285 284 294 299 273 285 280 282 315 48 60 35 356 334 329 327 329 341 330 294 277 283 286 273 258 261 264 265 226 214 214 217 212 212 207 210 208 197 182 164 152 138 125 116
339 337 321 293 285 256 269 284 259 271 294 313 316 281 275 287 280 311 69 65 60 3 351 354 348 343 346 359 16 12 317 267 259 262 257 262 250 244 252 229 221 221 206 209 208 213 216 208 195 189 177 162 148 135
336 307 301 292 286 278 314 327 338 312 293 320 307 306 304 289 317 14 69 36 8 16 10 359 1 4 7 9 14 16 9 359 323 265 273 271 246 241 239 237 223 219 213 217 210 212 216 211 204 203 202 197 188 166
305 262 248 282 259 303 284 298 308 297 307 308 275 278 294 311 23 42 64 25 14 19 17 17 15 17 14 5 12 13 4 356 347 331 316 280 251 246 237 228 221 221 226 215 212 206 208 210 210 212 210 208 212 205
278 233 183 239 270 227 305 301 317 308 310 277 283 319 315 326 311 59 44 359 2 5 1 4 10 14 18 18 4 359 5 3 345 346 346 329 276 252 255 230 217 216 216 216 216 209 207 208 209 215 213 210 213 218
280 284 248 243 264 293 290 280 282 255 267 284 341 338 335 321 55 35 356 0 359 359 360 359 5 13 13 12 14 8 352 12 22 29 45 35 350 233 235 249 234 223 217 214 212 221 211 215 213 213 213 210 213 218
247 265 232 268 279 263 251 254 255 256 268 299 338 1 0 29 13 340 339 345 360 5 6 13 11 11 19 27 28 22 23 360 10 38 76 79 85 97 112 145 194 208 217 221 223 226 235 230 217 216 215 212 211 211
249 248 274 275 270 248 238 238 250 239 263 269 80 14 66 60 5 6 9 13 16 19 19 18 19 17 24 42 43 38 33 30 32 26 18 24 35 42 43 57 104 181 197 213 233 246 254 241 215 219 219 214 211 211
253 227 253 266 249 244 228 218 247 257 273 297 331 121 106 75 50 43 36 31 30 25 24 24 23 26 25 24 25 34 37 36 36 37 33 17 13 18 6 19 25 3 247 226 226 236 241 237 228 220 232 218 209 209
270 269 251 244 262 262 310 307 291 278 274 252 263 206 152 128 57 40 39 31 30 25 30 30 31 29 25 23 23 25 30 35 38 41 45 37 32 26 16 2 347 339 333 311 264 261 239 238 230 221 230 222 216 212
217 224 235 272 286 304 323 339 304 132 80 91 42 132 127 102 74 23 18 18 23 27 27 27 31 32 27 25 26 30 29 26 23 20 18 15 20 23 23 26 21 7 353 343 315 285 280 253 237 232 228 232 221 214
263 269 240 275 280 295 323 321 222 114 99 92 66 72 86 92 91 29 19 22 23 17 18 23 28 26 20 19 27 34 35 35 35 36 35 31 27 26 23 27 31 34 31 22 9 327 269 242 244 247 243 232 216 208
Wind_Speed_850mb
53 51 52 56 60 60 61 63 64 63 62 56 46 35 33 27 26 22 31 31 33 19 51 51 29 29 29 25 6 14 19 5 7 11 7 6 5 6 7 7 13 8 11 4 6 5 6 30 28 9 16 8 14 22
51 51 56 60 62 64 69 65 65 58 46 40 39 40 33 30 22 21 35 29 28 44 55 77 84 71 78 66 35 9 6 8 5 3 3 4 5 4 6 6 7 6 1 8 5 5 14 31 25 46 48 21 19 33
52 56 59 61 63 66 68 63 59 52 49 46 43 41 38 25 16 24 36 35 34 34 51 39 26 4 1 15 25 17 11 9 6 8 4 4 8 4 5 5 6 7 5 6 14 4 14 36 34 44 28 25 39 44
54 55 57 58 61 64 59 57 54 49 49 47 44 40 35 29 21 31 35 37 37 21 11 20 16 56 49 38 37 39 37 9 9 6 7 5 6 9 4 6 5 8 14 16 10 11 33 14 54 36 44 49 55 44
53 56 58 61 63 60 57 55 51 47 47 47 46 43 36 30 25 30 39 46 46 33 9 28 61 4 18 12 30 35 47 38 14 5 6 6 7 6 5 2 5 4 7 7 8 38 24 33 45 38 36 55 64 61
55 56 59 60 58 56 54 52 51 48 44 43 43 40 34 26 22 20 13 5 10 36 8 8 19 16 18 12 22 35 35 30 17 7 8 10 11 7 4 4 10 12 21 16 13 47 42 36 41 41 46 59 72 57
59 58 57 57 56 53 51 51 50 49 46 44 42 36 30 25 23 17 9 10 12 17 9 10 13 10 19 6 11 18 23 16 14 7 9 8 9 8 2 4 11 30 23 22 31 35 31 42 28 40 39 40 47 52
62 56 54 53 52 50 49 50 49 48 46 43 38 30 28 24 24 29 13 27 18 11 11 5 8 16 4 6 2 7 7 10 11 8 6 7 6 1 6 13 16 24 25 22 33 28 25 28 39 39 34 32 34 48
56 52 51 50 49 48 47 46 47 46 45 39 28 16 9 3 10 5 15 16 37 23 9 6 4 7 9 1 3 4 9 6 6 5 6 4 1 7 12 10 6 18 16 23 24 29 38 48 45 40 29 29 36 42
49 50 51 48 46 45 43 42 42 49 38 27 12 3 5 3 9 15 7 8 13 18 17 9 12 6 4 5 5 5 7 4 4 7 5 5 7 16 16 10 3 9 15 23 24 34 36 43 46 48 36 29 29 31
45 47 48 44 43 39 35 35 38 45 34 23 19 6 11 12 12 6 6 7 8 7 12 12 21 17 12 6 7 2 1 2 4 6 3 4 6 8 20 8 2 2 9 17 14 16 20 29 41 45 43 37 36 35
41 43 42 40 37 32 28 26 34 36 34 39 28 24 16 6 7 5 7 6 9 8 9 8 10 20 9 15 6 5 3 2 7 8 2 6 7 11 19 14 7 6 5 12 10 16 18 28 37 44 42 40 40 39
40 38 37 35 29 22 22 31 32 40 42 8 7 7 7 6 6 10 9 6 6 8 5 3 5 8 9 14 5 4 2 7 2 4 6 8 8 5 14 18 12 10 6 4 6 13 13 18 25 38 39 40 36 33
40 36 32 31 26 26 35 34 39 41 16 4 7 9 9 9 10 9 8 5 8 18 31 27 14 12 11 6 4 5 5 5 5 2 9 7 13 12 12 20 14 17 13 8 8 13 15 15 19 30 36 37 33 29
39 39 31 28 19 33 39 45 40 31 9 8 9 10 10 19 17 12 19 14 20 27 20 7 8 3 3 5 5 3 3 5 10 9 7 14 20 21 17 17 9 13 13 8 7 11 13 11 17 25 30 33 32 30
38 37 18 15 30 43 42 39 32 11 8 10 15 11 18 7 10 8 9 20 20 18 28 6 1 3 9 5 6 12 10 10 8 7 14 13 28 26 22 13 11 8 16 10 7 8 11 11 16 24 27 34 37 41
34 28 34 33 33 36 40 31 9 12 12 11 15 28 41 34 28 34 20 33 34 22 5 5 6 10 3 5 5 8 9 7 12 15 12 16 35 37 28 13 15 15 15 15 12 6 8 13 14 19 29 35 41 45
30 32 32 32 34 37 30 8 9 11 15 21 12 18 18 26 30 36 42 37 16 8 6 6 9 8 7 7 6 5 22 28 17 15 15 18 24 23 25 25 21 20 13 19 16 8 8 12 13 19 23 27 34 37
32 33 30 28 23 17 10 7 11 10 17 26 31 41 37 36 37 34 35 34 33 26 11 7 7 7 7 10 8 12 30 34 30 23 21 19 25 26 26 28 27 23 24 24 22 17 12 10 12 16 17 17 26 33
28 24 17 12 14 8 9 10 11 15 11 14 29 29 26 29 34 32 44 45 35 11 10 6 7 4 8 32 30 38 33 35 15 27 20 19 23 24 27 27 32 29 33 32 27 23 22 18 12 12 15 17 19 29
28 25 26 19 15 14 11 10 10 15 20 15 27 27 30 41 30 28 17 20 7 2 4 14 28 39 36 36 39 42 43 33 26 28 24 32 25 30 29 33 33 33 36 38 39 31 27 20 21 16 15 16 19 23
21 30 22 15 5 6 11 12 13 24 18 29 34 15 14 11 10 10 20 6 9 12 18 28 38 45 44 39 36 30 33 32 27 30 42 50 37 28 38 39 41 40 49 43 41 38 33 28 25 18 13 15 17 20
24 23 11 5 6 6 13 12 8 8 6 18 29 8 7 7 8 15 5 9 9 23 28 33 37 33 28 26 26 17 10 19 29 36 46 53 43 42 37 38 44 39 48 45 42 37 36 38 32 23 17 13 11 14
16 6 5 5 6 9 13 8 13 13 9 8 7 10 9 7 14 7 6 8 21 34 36 32 34 40 37 32 40 42 41 31 14 19 23 23 26 39 33 31 40 41 44 39 44 44 47 46 40 32 24 16 11 9
4 2 2 8 6 6 6 4 6 5 6 11 4 6 7 15 2 5 4 12 33 42 50 45 41 37 44 44 41 40 38 45 35 28 15 17 27 26 32 32 36 39 36 42 48 50 51 53 49 42 37 28 20 14
3 5 7 5 6 3 5 6 5 7 10 6 6 11 13 7 3 9 6 44 32 43 43 45 46 43 46 50 47 44 50 44 36 26 22 19 14 23 27 32 43 43 42 40 43 54 49 53 55 51 48 38 30 21
4 8 7 10 9 12 10 12 17 8 6 5 6 7 7 8 10 7 22 41 42 41 38 36 37 36 37 41 49 43 31 44 39 23 16 14 3 8 16 22 37 31 36 43 45 49 51 50 53 52 54 49 40 30
10 7 7 8 12 14 6 6 5 4 5 5 11 6 9 8 7 19 24 39 35 32 32 33 29 29 30 35 42 50 45 25 31 20 20 33 28 21 17 12 16 16 19 34 42 36 42 54 52 50 55 55 46 38
9 9 10 21 13 7 5 7 7 7 6 4 2 4 6 7 17 21 27 31 34 37 42 44 41 36 29 29 38 46 54 54 47 43 53 55 42 31 30 18 9 9 14 21 26 30 32 42 59 51 55 55 48 42
8 8 7 7 5 5 11 16 14 16 13 13 4 7 19 21 31 24 23 27 33 35 32 33 36 37 40 40 38 38 41 42 48 51 48 47 48 36 31 26 16 7 7 18 20 27 33 38 47 50 52 64 59 53
7 5 7 9 10 15 19 25 29 30 25 14 17 14 22 15 25 38 30 26 28 31 36 39 40 41 42 46 47 45 43 41 36 33 32 36 46 46 38 29 22 17 15 14 15 18 32 48 49 55 61 62 69 64
9 12 7 5 10 22 19 16 6 3 6 5 10 12 16 10 8 20 42 31 29 34 35 35 36 38 36 36 36 38 37 36 37 35 33 33 36 36 46 39 32 23 17 17 15 15 18 26 52 64 66 68 75 75
11 16 15 7 8 7 13 21 7 9 9 7 8 18 16 9 9 15 27 32 28 27 24 23 22 25 29 32 33 37 39 39 39 39 39 38 35 36 27 34 42 45 36 23 14 8 10 22 30 38 53 63 73 74
Wind_Direction_850mb
319 321 323 322 324 327 326 324 322 320 320 324 326 326 320 312 303 284 290 285 270 255 284 278 264 258 274 247 244 317 334 334 350 26 354 338 304 330 296 275 312 317 317 346 293 266 328 346 328 327 343 292 339 320
318 321 318 323 326 327 327 323 324 331 332 328 326 322 318 313 313 286 286 296 293 257 269 289 291 280 260 250 269 267 255 288 258 308 267 277 311 283 299 297 317 328 212 301 249 266 264 301 262 299 293 321 327 318
318 318 319 321 324 325 321 321 323 326 325 324 323 321 320 311 292 292 278 285 289 282 296 294 316 337 27 223 218 228 229 214 226 234 262 276 275 283 285 295 278 282 349 282 309 201 290 322 312 319 331 318 320 323
316 317 318 319 321 321 321 321 322 321 320 318 318 319 320 313 286 283 281 276 279 277 282 285 299 304 294 268 244 250 234 199 265 253 243 261 259 222 260 272 289 251 317 305 269 311 329 292 310 339 350 341 339 353
316 318 319 320 319 320 322 322 323 322 318 317 316 315 307 304 302 286 281 275 262 239 281 290 306 305 323 250 237 234 227 230 256 244 221 251 248 252 240 354 254 264 294 324 307 305 303 293 327 10 354 353 350 4
315 317 317 319 320 320 321 322 322 323 320 317 314 314 308 300 298 319 314 350 281 224 270 289 314 304 332 293 217 215 218 227 228 238 243 262 259 236 280 259 256 267 317 332 298 314 321 340 14 25 18 7 5 355
314 316 316 318 319 322 322 323 325 325 324 320 317 312 304 295 273 236 240 295 327 196 250 276 296 285 311 289 195 204 213 205 220 249 227 248 279 231 290 242 276 335 346 1 5 353 353 11 9 28 28 15 351 15
312 315 316 317 319 321 323 324 326 327 324 318 314 307 298 279 263 270 297 251 202 224 251 270 273 316 300 311 299 211 213 202 223 242 255 227 271 215 257 254 327 1 359 1 16 31 24 22 29 33 31 24 13 15
309 312 314 317 321 321 324 325 326 327 326 319 319 320 331 320 201 248 304 285 216 209 284 237 201 267 330 127 338 253 225 237 229 228 243 177 196 232 230 233 7 12 4 352 21 38 39 39 34 26 26 22 25 17
307 310 314 319 318 322 324 326 332 334 343 337 330 290 221 224 293 292 257 227 180 206 229 248 211 256 312 307 268 225 208 242 232 228 225 212 258 249 210 212 306 351 354 3 13 23 25 27 27 26 25 19 26 20
308 309 315 320 322 325 327 336 337 335 349 5 351 311 293 277 289 227 252 233 190 249 229 235 237 241 248 196 233 302 235 232 278 279 256 271 271 250 177 206 251 338 10 9 15 30 39 31 25 20 18 21 23 22
309 311 314 319 321 323 329 332 321 337 342 326 304 301 303 259 237 220 214 209 200 238 211 195 238 208 243 219 228 203 212 59 251 328 75 266 251 253 174 151 189 253 30 27 38 35 33 23 20 22 22 19 25 19
309 311 315 316 320 326 313 315 329 328 325 317 274 253 237 227 220 221 220 205 212 203 197 295 250 224 213 214 224 106 151 233 20 45 233 231 265 204 170 154 153 191 167 86 49 48 38 26 15 23 29 29 27 32
310 313 316 307 308 302 302 318 324 330 329 297 255 260 209 219 231 207 203 203 9 335 308 293 253 196 197 171 171 177 218 76 26 307 241 256 229 184 175 157 169 178 174 126 67 45 26 28 29 28 28 28 30 41
313 318 320 298 292 302 309 313 316 314 265 241 239 242 235 230 255 261 263 294 288 292 308 275 219 217 262 220 196 119 147 255 202 231 236 254 190 173 178 188 178 168 172 159 114 48 40 49 27 35 34 30 30 43
319 328 337 317 303 300 309 309 311 254 236 233 233 259 258 290 281 266 289 293 319 315 314 226 328 254 222 191 153 208 143 222 248 221 242 204 192 188 187 197 188 172 174 173 146 60 36 43 32 34 41 48 51 53
316 327 323 327 315 308 311 306 247 228 226 232 244 240 255 279 270 279 288 297 309 307 247 151 199 196 222 294 265 173 202 228 229 222 233 218 200 207 208 204 194 183 190 178 170 139 77 65 46 45 56 60 57 59
316 325 333 328 321 323 327 236 240 245 247 249 246 270 252 259 273 285 293 300 296 243 245 236 163 193 211 216 250 232 290 294 257 243 246 224 216 210 207 205 199 198 214 189 181 170 125 96 63 62 69 70 63 63
324 332 335 332 322 313 296 267 246 267 252 268 272 280 286 287 291 291 291 299 297 266 263 244 219 206 218 227 236 262 271 259 257 257 245 246 241 238 216 204 204 211 205 201 191 176 145 106 75 77 80 89 74 67
331 332 336 315 331 309 278 266 255 273 279 292 297 286 304 292 294 294 298 295 278 224 207 243 220 271 304 314 309 291 285 304 279 274 277 243 221 219 209 203 201 213 210 204 186 182 174 159 131 96 93 87 84 80
346 348 340 320 293 233 264 287 266 269 290 293 295 320 308 294 288 290 297 322 191 130 334 8 336 330 328 311 297 293 289 289 284 246 272 281 255 230 212 208 211 208 207 206 198 198 201 185 159 140 128 119 111 100
347 337 333 337 269 248 265 256 261 291 285 284 294 299 273 285 280 282 315 48 60 35 356 334 329 327 329 341 330 294 277 283 286 273 258 261 264 265 226 214 214 217 212 212 207 210 208 197 182 164 152 138 125 116
339 337 321 293 285 256 269 284 259 271 294 313 316 281 275 287 280 311 69 65 60 3 351 354 348 343 346 359 16 12 317 267 259 262 257 262 250 244 252 229 221 221 206 209 208 213 216 208 195 189 177 162 148 135
336 307 301 292 286 278 314 327 338 312 293 320 307 306 304 289 317 14 69 36 8 16 10 359 1 4 7 9 14 16 9 359 323 265 273 271 246 241 239 237 223 219 213 217 210 212 216 211 204 203 202 197 188 166
305 262 248 282 259 303 284 298 308 297 307 308 275 278 294 311 23 42 64 25 14 19 17 17 15 17 14 5 12 13 4 356 347 331 316 280 251 246 237 228 221 221 226 215 212 206 208 210 210 212 210 208 212 205
278 233 183 239 270 227 305 301 317 308 310 277 283 319 315 326 311 59 44 359 2 5 1 4 10 14 18 18 4 359 5 3 345 346 346 329 276 252 255 230 217 216 216 216 216 209 207 208 209 215 213 210 213 218
280 284 248 243 264 293 290 280 282 255 267 284 341 338 335 321 55 35 356 0 359 359 360 359 5 13 13 12 14 8 352 12 22 29 45 35 350 233 235 249 234 223 217 214 212 221 211 215 213 213 213 210 213 218
247 265 232 268 279 263 251 254 255 256 268 299 338 1 0 29 13 340 339 345 360 5 6 13 11 11 19 27 28 22 23 360 10 38 76 79 85 97 112 145 194 208 217 221 223 226 235 230 217 216 215 212 211 211
249 248 274 275 270 248 238 238 250 239 263 269 80 14 66 60 5 6 9 13 16 19 19 18 19 17 24 42 43 38 33 30 32 26 18 24 35 42 43 57 104 181 197 213 233 246 254 241 215 219 219 214 211 211
253 227 253 266 249 244 228 218 247 257 273 297 331 121 106 75 50 43 36 31 30 25 24 24 23 26 25 24 25 34 37 36 36 37 33 17 13 18 6 19 25 3 247 226 226 236 241 237 228 220 232 218 209 209
270 269 251 244 262 262 310 307 291 278 274 252 263 206 152 128 57 40 39 31 30 25 30 30 31 29 25 23 23 25 30 35 38 41 45 37 32 26 16 2 347 339 333 311 264 261 239 238 230 221 230 222 216 212
217 224 235 272 286 304 323 339 304 132 80 91 42 132 127 102 74 23 18 18 23 27 27 27 31 32 27 25 26 30 29 26 23 20 18 15 20 23 23 26 21 7 353 343 315 285 280 253 237 232 228 232 221 214
263 269 240 275 280 295 323 321 222 114 99 92 66 72 86 92 91 29 19 22 23 17 18 23 28 26 20 19 27 34 35 35 35 36 35 31 27 26 23 27 31 34 31 22 9 327 269 242 244 247 243 232 216 208